CW7615 Weather Reports


time (UTC)temp
C
wind
direction
speed
KPH
gust
KPH
rain 1hr
cm
rain 24hr
cm
rain mn
cm
humidity
%
barometer
mb
20260506062042 15 327 3.2 9.7 0.00 0.00 0.00 62 1010.0
20260506061542 15 338 4.8 9.7 0.00 0.00 0.00 61 1010.1
20260506061043 15 342 1.6 3.2 0.00 0.00 0.00 68 1010.0
20260506060540 15 342 0.0 4.8 0.00 0.00 0.00 66 1010.1
20260506051033 16 24 0.0 1.6 0.00 0.00 0.00 67 1009.6
20260506050530 16 28 0.0 6.4 0.00 0.00 0.00 66 1009.5
20260506045025 16 31 0.0 6.4 0.00 0.00 0.00 61 1009.5
20260506044524 17 32 3.2 4.8 0.00 0.00 0.00 58 1009.5
20260506044021 17 30 1.6 6.4 0.00 0.00 0.00 48 1009.6
20260506043523 17 30 1.6 8.0 0.00 0.00 0.00 47 1009.6
20260506043020 17 30 1.6 8.0 0.00 0.00 0.00 45 1009.4
20260506042522 17 21 3.2 6.4 0.00 0.00 0.00 43 1009.4
20260506042021 17 22 3.2 14.5 0.00 0.00 0.00 44 1009.5
20260506041520 17 29 6.4 16.1 0.00 0.00 0.00 43 1009.4
20260506041019 17 14 8.0 16.1 0.00 0.00 0.00 43 1009.4
20260506040519 17 355 8.0 12.9 0.00 0.00 0.00 44 1009.4
20260506040033 17 345 8.0 12.9 0.00 0.00 0.00 44 1009.5
20260506035519 17 10 4.8 9.7 0.00 0.00 0.00 44 1009.5
20260506035017 17 27 3.2 12.9 0.00 0.00 0.00 45 1009.4
20260506034516 17 9 3.2 12.9 0.00 0.00 0.00 44 1009.5
20260506034014 17 11 4.8 9.7 0.00 0.00 0.00 44 1009.6
20260506033515 17 9 1.6 9.7 0.00 0.00 0.00 44 1009.6
20260506033015 17 19 3.2 9.7 0.00 0.00 0.00 44 1009.6
20260506032516 17 24 4.8 14.5 0.00 0.00 0.00 43 1009.6
20260506032014 17 15 6.4 16.1 0.00 0.00 0.00 44 1009.6
20260506031515 17 9 4.8 17.7 0.00 0.00 0.00 44 1009.6
20260506031016 17 20 8.0 14.5 0.00 0.00 0.00 43 1009.6
20260506030513 17 24 4.8 14.5 0.00 0.00 0.00 43 1009.6
20260506030015 17 28 6.4 14.5 0.00 0.00 0.00 43 1009.6
20260506025512 17 13 3.2 9.7 0.00 0.00 0.00 44 1009.7
20260506025013 17 12 4.8 9.7 0.00 0.00 0.00 43 1009.6
20260506024511 17 360 3.2 8.0 0.00 0.00 0.00 44 1009.6
20260506024011 17 9 3.2 8.0 0.00 0.00 0.00 44 1009.7
20260506023514 17 19 4.8 8.0 0.00 0.00 0.00 44 1009.6
20260506023010 17 17 4.8 12.9 0.00 0.00 0.00 44 1009.7
20260506022509 17 5 4.8 12.9 0.00 0.00 0.00 44 1009.7
20260506022012 17 9 6.4 11.3 0.00 0.00 0.00 44 1009.7
20260506021516 17 12 4.8 9.7 0.00 0.00 0.00 43 1009.8
20260506021008 18 18 4.8 9.7 0.00 0.00 0.00 43 1009.7
20260506020507 18 12 3.2 14.5 0.00 0.00 0.00 43 1009.8
20260506020006 18 355 4.8 14.5 0.00 0.00 0.00 43 1009.8
20260506015505 18 29 4.8 9.7 0.00 0.00 0.00 43 1009.9
20260506015009 18 77 6.4 11.3 0.00 0.00 0.00 43 1009.9
20260506014504 18 30 4.8 12.9 0.00 0.00 0.00 43 1010.0
20260506014003 18 13 4.8 12.9 0.00 0.00 0.00 43 1010.0
20260506013502 18 42 6.4 12.9 0.00 0.00 0.00 43 1010.0
20260506013002 18 11 6.4 11.3 0.00 0.00 0.00 43 1010.1
20260506012501 18 26 8.0 11.3 0.00 0.00 0.00 43 1010.1
20260506012100 18 15 4.8 16.1 0.00 0.00 0.00 43 1010.1
20260506011600 18 28 8.0 16.1 0.00 0.00 0.00 42 1010.2
20260506011100 18 32 4.8 16.1 0.00 0.00 0.00 42 1010.1
20260506010559 18 355 9.7 24.1 0.00 0.00 0.00 43 1010.2
20260506010117 18 344 8.0 24.1 0.00 0.00 0.00 42 1010.2
20260506005559 18 346 8.0 17.7 0.00 0.00 0.00 42 1010.1
20260506005058 18 84 4.8 9.7 0.00 0.00 0.00 42 1010.3
20260506004557 18 355 3.2 17.7 0.00 0.00 0.00 42 1010.3
20260506004055 18 360 8.0 17.7 0.00 0.00 0.00 42 1010.2
20260506003556 18 52 6.4 19.3 0.00 0.00 0.00 42 1010.4
20260506003055 19 351 9.7 27.4 0.00 0.00 0.00 42 1010.4
20260506002553 19 360 17.7 27.4 0.00 0.00 0.00 43 1010.4
20260506002052 19 348 11.3 19.3 0.00 0.00 0.00 42 1010.4
20260506001552 19 360 6.4 20.9 0.00 0.00 0.00 42 1010.4
20260506001053 19 5 4.8 27.4 0.00 0.00 0.00 41 1010.6
20260506000551 19 348 9.7 27.4 0.00 0.00 0.00 41 1010.5
20260506000050 19 360 11.3 24.1 0.00 0.00 0.00 40 1010.5
20260505235548 20 30 11.3 20.9 0.00 0.00 0.00 39 1010.4
20260505235052 20 360 9.7 20.9 0.00 0.00 0.00 40 1010.4
20260505234603 20 5 14.5 20.9 0.00 0.00 0.00 39 1010.5
20260505234046 20 9 6.4 17.7 0.00 0.00 0.00 39 1010.4
20260505233545 20 5 9.7 16.1 0.00 0.00 0.00 38 1010.4
20260505233045 20 355 4.8 16.1 0.00 0.00 0.00 38 1010.5
20260505232545 20 24 8.0 19.3 0.00 0.00 0.00 38 1010.4
20260505232046 20 5 6.4 19.3 0.00 0.00 0.00 39 1010.4
20260505231545 20 355 8.0 16.1 0.00 0.00 0.00 38 1010.4
20260505231043 20 360 3.2 14.5 0.00 0.00 0.00 39 1010.4
20260505230543 20 16 4.8 17.7 0.00 0.00 0.00 38 1010.4
20260505230043 20 12 11.3 17.7 0.00 0.00 0.00 38 1010.4
20260505225544 20 39 8.0 24.1 0.00 0.00 0.00 38 1010.4
20260505225043 20 355 8.0 24.1 0.00 0.00 0.00 38 1010.4
20260505224543 20 22 8.0 22.5 0.00 0.00 0.00 38 1010.5
20260505224045 20 360 11.3 22.5 0.00 0.00 0.00 38 1010.5
20260505223541 20 355 6.4 20.9 0.00 0.00 0.00 38 1010.6
20260505223041 20 22 11.3 20.9 0.00 0.00 0.00 38 1010.6
20260505222542 20 350 8.0 19.3 0.00 0.00 0.00 37 1010.7
20260505222039 20 360 9.7 17.7 0.00 0.00 0.00 37 1010.8
20260505221539 20 20 8.0 22.5 0.00 0.00 0.00 37 1010.7
20260505221038 20 17 8.0 32.2 0.00 0.00 0.00 37 1010.7
20260505220539 20 355 17.7 32.2 0.00 0.00 0.00 37 1010.7
20260505220041 20 26 8.0 19.3 0.00 0.00 0.00 37 1010.6
20260505215537 20 355 6.4 22.5 0.00 0.00 0.00 36 1010.7
20260505215039 20 360 12.9 27.4 0.00 0.00 0.00 37 1010.8
20260505214559 20 32 16.1 27.4 0.00 0.00 0.00 37 1010.7
20260505214037 20 22 9.7 20.9 0.00 0.00 0.00 37 1010.8
20260505213539 20 344 4.8 20.9 0.00 0.00 0.00 37 1010.8
20260505213036 20 5 11.3 27.4 0.00 0.00 0.00 37 1010.8
20260505212535 20 25 11.3 27.4 0.00 0.00 0.00 37 1010.8
20260505212034 20 360 11.3 27.4 0.00 0.00 0.00 37 1010.8
20260505211535 20 28 14.5 27.4 0.00 0.00 0.00 37 1010.7
20260505211035 20 5 9.7 20.9 0.00 0.00 0.00 37 1010.9
20260505210534 20 360 8.0 20.9 0.00 0.00 0.00 36 1010.9
20260505210033 20 342 6.4 22.5 0.00 0.00 0.00 36 1010.8
20260505205535 20 5 12.9 20.9 0.00 0.00 0.00 36 1010.8
20260505205034 20 355 4.8 19.3 0.00 0.00 0.00 36 1010.7
20260505204537 20 351 8.0 19.3 0.00 0.00 0.00 36 1010.8
20260505204034 20 25 3.2 19.3 0.00 0.00 0.00 36 1010.8
20260505203532 20 360 9.7 19.3 0.00 0.00 0.00 35 1010.8
20260505203040 20 5 8.0 20.9 0.00 0.00 0.00 36 1010.7
20260505202532 20 5 11.3 20.9 0.00 0.00 0.00 35 1010.8
20260505202033 20 45 12.9 30.6 0.00 0.00 0.00 35 1011.0
20260505201537 20 340 11.3 30.6 0.00 0.00 0.00 36 1010.9
20260505201031 20 350 11.3 22.5 0.00 0.00 0.00 37 1011.0
20260505200531 20 349 8.0 22.5 0.00 0.00 0.00 38 1010.9
20260505200031 19 325 8.0 17.7 0.00 0.00 0.00 40 1010.8
20260505195529 18 38 8.0 16.1 0.00 0.00 0.00 44 1010.9
20260505195030 18 360 8.0 16.1 0.00 0.00 0.00 59 1010.9
20260505194531 18 20 3.2 6.4 0.00 0.00 0.00 64 1011.0
20260505194029 18 54 1.6 9.7 0.00 0.00 0.00 60 1010.9
20260505193528 18 5 3.2 9.7 0.00 0.00 0.00 53 1010.9
20260505193028 18 339 0.0 6.4 0.00 0.00 0.00 55 1010.9
20260505192530 18 280 3.2 6.4 0.00 0.00 0.00 64 1010.9
20260505192028 18 271 1.6 4.8 0.00 0.00 0.00 65 1010.9
20260505191529 18 194 0.0 3.2 0.00 0.00 0.00 65 1010.8
20260505191027 18 194 0.0 3.2 0.00 0.00 0.00 65 1010.7
20260505190528 18 194 0.0 3.2 0.00 0.00 0.00 65 1010.8
20260505190027 18 194 0.0 3.2 0.00 0.00 0.00 64 1010.7
20260505185528 19 194 0.0 3.2 0.00 0.00 0.00 64 1010.8
20260505185027 19 194 0.0 0.0 0.00 0.00 0.00 63 1010.8
20260505184528 19 194 0.0 1.6 0.00 0.00 0.00 63 1010.7
20260505184026 19 194 0.0 3.2 0.00 0.00 0.00 63 1010.8
20260505183526 19 194 1.6 4.8 0.00 0.00 0.00 62 1010.8
20260505183026 19 194 1.6 4.8 0.00 0.00 0.00 62 1010.8
20260505182527 19 160 1.6 4.8 0.00 0.00 0.00 62 1010.7
20260505182026 20 144 1.6 4.8 0.00 0.00 0.00 61 1010.7
20260505181526 20 144 0.0 0.0 0.00 0.00 0.00 62 1010.6
20260505181025 20 144 0.0 1.6 0.00 0.00 0.00 61 1010.6
20260505180525 19 144 0.0 1.6 0.00 0.00 0.00 61 1010.5
20260505180048 19 144 0.0 3.2 0.00 0.00 0.00 62 1010.6
20260505175528 19 144 0.0 3.2 0.00 0.00 0.00 61 1010.6
20260505175029 19 144 1.6 4.8 0.00 0.00 0.00 61 1010.6
20260505174546 19 144 1.6 6.4 0.00 0.00 0.00 61 1010.6
20260505174024 19 144 1.6 6.4 0.00 0.00 0.00 61 1010.8
20260505173526 19 201 0.0 4.8 0.00 0.00 0.00 61 1010.8
20260505173030 19 202 0.0 6.4 0.00 0.00 0.00 62 1011.0
20260505172522 19 202 0.0 8.0 0.00 0.00 0.00 62 1011.1
20260505172023 19 252 1.6 12.9 0.00 0.00 0.00 62 1011.2
20260505171524 19 163 8.0 16.1 0.00 0.00 0.00 62 1011.3
20260505171021 19 161 8.0 16.1 0.00 0.00 0.00 61 1011.2
20260505170521 19 220 6.4 19.3 0.00 0.00 0.00 61 1011.0
20260505170022 20 141 8.0 19.3 0.00 0.00 0.00 59 1011.0
20260505165522 20 184 8.0 16.1 0.00 0.00 0.00 58 1011.1
20260505165024 20 213 8.0 16.1 0.00 0.00 0.00 59 1011.1
20260505164521 20 175 9.7 17.7 0.00 0.00 0.00 59 1010.9
20260505164020 20 154 11.3 16.1 0.00 0.00 0.00 59 1010.9
20260505163520 20 169 9.7 20.9 0.00 0.00 0.00 58 1010.9
20260505163021 20 183 6.4 22.5 0.00 0.00 0.00 57 1011.0
20260505162521 20 194 9.7 22.5 0.00 0.00 0.00 57 1011.0
20260505162021 20 164 8.0 20.9 0.00 0.00 0.00 57 1010.9
20260505161519 21 162 11.3 22.5 0.00 0.00 0.00 56 1010.9
20260505161024 21 177 12.9 29.0 0.00 0.00 0.00 55 1010.8
20260505160519 21 168 12.9 30.6 0.00 0.00 0.00 55 1010.9
20260505153015 21 145 8.0 22.5 0.00 0.00 0.00 51 1010.9
20260505152516 21 186 12.9 22.5 0.00 0.00 0.00 50 1011.0
20260505152015 21 191 11.3 22.5 0.00 0.00 0.00 49 1011.0
20260505151515 21 225 8.0 22.5 0.00 0.00 0.00 49 1011.0
20260505151014 21 225 9.7 24.1 0.00 0.00 0.00 49 1011.0
20260505150517 21 189 11.3 24.1 0.00 0.00 0.00 48 1011.0
20260505140611 21 212 12.9 27.4 0.00 0.00 0.00 53 1011.4
20260505125004 22 209 6.4 19.3 0.00 0.00 0.00 53 1011.9
20260505124503 21 166 6.4 24.1 0.00 0.00 0.00 54 1011.9
20260505124003 22 189 14.5 24.1 0.00 0.00 0.00 51 1012.0
20260505123504 22 188 9.7 17.7 0.00 0.00 0.00 50 1012.0
20260505123002 22 146 9.7 17.7 0.00 0.00 0.00 48 1012.0
20260505122503 23 198 11.3 17.7 0.00 0.00 0.00 45 1012.0
20260505122001 23 215 4.8 25.7 0.00 0.00 0.00 46 1012.0
20260505121501 22 159 12.9 25.7 0.00 0.00 0.00 43 1012.0
20260505121001 22 173 11.3 24.1 0.00 0.00 0.00 43 1012.0
20260505120500 22 166 11.3 24.1 0.00 0.00 0.00 43 1012.1
20260505120000 23 178 9.7 19.3 0.00 0.00 0.00 43 1012.1
20260505115600 22 194 6.4 16.1 0.00 0.00 0.00 43 1012.2
20260505115100 22 183 11.3 20.9 0.00 0.00 0.00 43 1012.2
20260505114601 22 175 11.3 19.3 0.00 0.00 0.00 42 1012.3
20260505114058 22 198 8.0 16.1 0.00 0.00 0.00 43 1012.5
20260505113600 22 208 8.0 17.7 0.00 0.00 0.00 42 1012.4
20260505113111 22 207 9.7 17.7 0.00 0.00 0.00 44 1012.4
20260505112557 22 187 6.4 12.9 0.00 0.00 0.00 44 1012.5
20260505112056 22 165 1.6 17.7 0.00 0.00 0.00 52 1012.4
20260505111555 22 86 1.6 19.3 0.00 0.00 0.00 51 1012.6
20260505111054 22 103 4.8 19.3 0.00 0.00 0.00 50 1012.8
20260505110556 22 96 8.0 20.9 0.00 0.00 0.00 51 1012.8
20260505110153 22 101 9.7 20.9 0.00 0.00 0.00 52 1012.8
20260505102044 21 66 4.8 14.5 0.00 0.00 0.00 52 1012.9
20260505101543 21 117 6.4 16.1 0.00 0.00 0.00 52 1013.0
20260505101042 20 103 8.0 20.9 0.00 0.00 0.00 53 1013.0
20260505100541 20 57 4.8 20.9 0.00 0.00 0.00 53 1013.1
20260505100042 20 132 6.4 17.7 0.00 0.00 0.00 54 1012.9
20260505095540 20 150 9.7 20.9 0.00 0.00 0.00 54 1013.0
20260505095039 20 146 9.7 20.9 0.00 0.00 0.00 55 1012.9
20260505094538 20 155 9.7 17.7 0.00 0.00 0.00 55 1012.9
20260505094038 20 144 9.7 17.7 0.00 0.00 0.00 56 1012.8
20260505093537 20 134 11.3 16.1 0.00 0.00 0.00 56 1012.8
20260505093038 20 119 11.3 14.5 0.00 0.00 0.00 55 1012.7
20260505092536 20 147 6.4 12.9 0.00 0.00 0.00 55 1012.6
20260505092034 20 148 4.8 17.7 0.00 0.00 0.00 57 1012.6
20260505091540 20 130 8.0 17.7 0.00 0.00 0.00 55 1012.6
20260505091033 20 126 6.4 17.7 0.00 0.00 0.00 57 1012.6
20260505090531 20 126 8.0 16.1 0.00 0.00 0.00 57 1012.7
20260505090030 20 103 8.0 16.1 0.00 0.00 0.00 58 1012.7
20260505085532 20 120 8.0 14.5 0.00 0.00 0.00 57 1012.7
20260505085028 20 106 6.4 14.5 0.00 0.00 0.00 59 1012.6
20260505084529 20 126 6.4 14.5 0.00 0.00 0.00 57 1012.7
20260505084027 20 123 6.4 14.5 0.00 0.00 0.00 57 1012.6
20260505083525 20 128 6.4 12.9 0.00 0.00 0.00 57 1012.6
20260505083026 20 117 6.4 12.9 0.00 0.00 0.00 57 1012.5
20260505082523 20 118 8.0 12.9 0.00 0.00 0.00 57 1012.5
20260505082023 20 100 6.4 12.9 0.00 0.00 0.00 56 1012.6
20260505081522 20 128 6.4 11.3 0.00 0.00 0.00 55 1012.6
20260505081023 20 126 4.8 9.7 0.00 0.00 0.00 55 1012.7
20260505080519 19 117 4.8 11.3 0.00 0.00 0.00 55 1012.6
20260505080022 19 135 4.8 11.3 0.00 0.00 0.00 56 1012.7
20260505075518 18 119 4.8 11.3 0.00 0.00 0.00 56 1012.7
20260505075021 18 121 4.8 12.9 0.00 0.00 0.00 56 1012.8
20260505074518 18 124 8.0 12.9 0.00 0.00 0.00 56 1012.8
20260505074018 18 130 6.4 11.3 0.00 0.00 0.00 56 1012.9
20260505073517 18 124 4.8 9.7 0.00 0.00 0.00 55 1012.9
20260505073016 19 116 4.8 6.4 0.00 0.00 0.00 57 1012.8
20260505072521 19 109 4.8 6.4 0.00 0.00 0.00 56 1012.8
20260505072014 19 121 3.2 4.8 0.00 0.00 0.00 55 1012.8
20260505071513 19 120 1.6 6.4 0.00 0.00 0.00 55 1012.8
20260505071013 19 118 3.2 6.4 0.00 0.00 0.00 53 1012.8
20260505070516 19 47 0.0 1.6 0.00 0.00 0.00 51 1012.7
20260505070013 19 47 0.0 1.6 0.00 0.00 0.00 52 1012.8
20260505065516 19 47 0.0 4.8 0.00 0.00 0.00 52 1012.7
20260505065011 19 13 0.0 6.4 0.00 0.00 0.00 53 1012.7
20260505064510 18 12 3.2 6.4 0.00 0.00 0.00 54 1012.6
20260505064008 18 11 1.6 6.4 0.00 0.00 0.00 56 1012.7
20260505063507 17 5 3.2 6.4 0.00 0.00 0.00 58 1012.7
20260505063007 17 5 4.8 6.4 0.00 0.00 0.00 58 1012.6
20260505062510 16 355 1.6 6.4 0.00 0.00 0.00 59 1012.7